Location: *
(43.9900°N, 3.4811°E)
Time: 09:48:04
(UTC+00:00)

Daily predictions for brighter satellites

Satellite Brightness Start Highest point End
(mag) Time Altitude Azimuth Time Altitude Azimuth Time Altitude Azimuth
Meteor 2-4 Rocket 4.2 19:03:23 10° N 19:08:21 37° ENE 19:13:19 10° SE
SPOT 3 Rocket 3.6 19:06:04 10° SSE 19:11:09 61° ENE 19:16:16 10° N
Cosmos 1656 4.5 19:06:32 10° N 19:11:43 35° NE 19:16:49 10° ESE
SJ-6B 3.0 19:08:11 10° SSE 19:12:06 57° ENE 19:16:07 10° N
Cosmos 1733 Rocket 3.3 19:15:22 10° SSE 19:19:29 47° E 19:23:39 10° NNE
Cosmos 1833 Rocket 3.6 19:19:48 10° SSE 19:24:22 26° ESE 19:28:56 10° NE
TSX-5 3.8 19:21:36 10° NNW 19:25:09 65° ENE 19:29:33 10° SE
Cosmos 1674 Rocket 4.1 19:21:39 10° N 19:25:45 39° ENE 19:29:48 10° SSE
Cosmos 1515 4.2 19:22:27 10° N 19:26:05 40° ENE 19:29:41 10° SSE
Cosmos 1536 4.1 19:23:58 10° SE 19:27:08 22° E 19:30:19 10° NE
Resurs 01 Rocket 2.5 19:23:25 11° SE 19:27:13 32° ENE 19:31:10 10° N
Cosmos 44 Rocket 3.2 19:24:03 10° NW 19:28:50 89° WSW 19:33:32 10° SSE
Abrixas rocket 3.5 19:28:47 10° WNW 19:31:39 34° N 19:34:31 10° ENE
Okean 3 3.4 19:28:10 10° N 19:32:23 81° E 19:36:35 10° S
Cosmos 2082 Rocket 3.3 19:29:07 10° SSE 19:33:17 22° E 19:37:29 10° NE
Cosmos 1898 Rocket 3.7 19:28:46 10° S 19:33:47 47° ESE 19:38:48 10° NNE
Cosmos 923 Rocket 4.2 19:29:34 10° NNW 19:34:56 78° WSW 19:40:12 10° SSE
ASTEX 1 4.3 19:30:59 10° NNE 19:35:17 29° E 19:39:02 12° SE
USA 267 3.6 19:30:59 10° NE 19:37:31 72° NW 19:44:01 10° WSW
CZ-2C R/B 4.5 19:35:06 10° N 19:39:43 58° WNW 19:44:11 10° SSW
Cosmos 1697 Rocket 3.5 19:34:57 10° N 19:40:10 36° NE 19:43:58 17° ESE
Cosmos 1666 4.5 19:40:49 15° E 19:40:57 15° E 19:43:09 10° NE
CZ-2C R/B 4.0 19:38:37 10° NE 19:42:17 18° E 19:43:45 17° ESE
Cosmos 1680 Rocket 3.5 19:39:38 10° NNW 19:44:54 84° WSW 19:50:06 10° SSE
Shenzhou-11 Module 1.7 19:43:42 10° W 19:46:29 69° S 19:47:44 28° ESE
H-2A R/B 1.9 19:48:17 10° SSE 19:53:18 87° WSW 19:58:15 10° NNW
CZ-2C R/B 3.1 19:50:22 18° SE 19:53:44 51° ENE 19:58:27 10° N
Meteor 1-5 Rocket 4.1 19:51:04 10° S 19:56:45 72° E 20:02:16 10° NNE
Cosmos 1553 Rocket 4.2 19:50:34 10° SSW 19:56:51 78° W 20:03:16 10° N
Cosmos 158 Rocket 4.1 19:53:13 10° NNW 19:58:32 62° ENE 20:02:03 21° SE
Aureole 3 Rocket 2.3 19:55:22 10° S 19:58:51 58° E 20:01:53 10° NNE
Meteor 1-11 Rocket 3.8 19:54:31 10° S 20:00:24 71° E 20:06:22 10° NNE
ARGOS 3.2 19:55:54 10° S 20:01:15 79° WSW 20:06:39 10° NNW
Cosmos 1980 Rocket 3.2 19:59:56 10° N 20:04:57 32° NE 20:07:34 22° E
Cosmos 990 Rocket 3.9 20:04:35 10° SSW 20:09:48 89° E 20:15:02 10° NNE
USA 234 3.3 20:06:52 22° SE 20:11:23 84° SW 20:18:00 10° NW
Cosmos 1937 Rocket 3.4 20:09:19 10° SSW 20:14:36 79° ESE 20:19:57 10° NNE
Iridium 2 3.6 20:13:12 31° SSE 20:14:51 64° E 20:18:35 10° N
Spot 2 Rocket 3.5 20:13:44 27° SE 20:16:24 62° ENE 20:21:26 10° N
GP-B 3.1 20:12:15 10° N 20:16:40 62° E 20:18:48 29° SSE
Cosmos 1500 3.4 20:14:21 10° SSW 20:18:11 73° W 20:22:03 10° N
Cosmos 1709 Rocket 4.0 20:12:35 10° N 20:18:43 66° E 20:22:29 24° SSE
Cosmos 2098 Rocket 3.6 20:13:51 10° N 20:18:53 77° E 20:23:12 21° SSE
COSMOS 2406 4.1 20:15:24 10° SW 20:20:56 52° WNW 20:26:32 10° NNE
SJ 16-02 1.3 20:16:52 10° SSW 20:21:17 86° WNW 20:25:44 10° NNE
Cosmos 1908 Rocket 3.5 20:18:14 11° S 20:22:35 89° W 20:27:04 10° N
Resurs 1-3 4.3 20:18:54 13° S 20:22:40 51° W 20:26:57 10° NNW
S3M 4.5 20:18:00 10° SSW 20:24:12 62° W 20:30:21 10° N
MTI 4.2 20:24:01 10° NNE 20:26:31 46° NE 20:26:31 46° NE
Cosmos 2369 3.6 20:24:24 10° NNW 20:30:06 88° WSW 20:32:48 33° SSE
Cosmos 1340 2.8 20:31:02 50° E 20:31:02 50° E 20:34:29 10° NNE
Meteor 1-23 Rocket 4.1 20:27:46 10° N 20:33:31 86° E 20:36:24 30° SSE
BREEZE-M DEB (TANK) 2.7 20:32:31 10° WNW 20:34:06 47° WNW 20:34:06 47° WNW
Meteor 2-16 Rocket 4.4 20:32:19 10° N 20:38:30 85° E 20:41:43 30° S
ADEOS Rocket 3.6 20:33:15 10° N 20:39:18 63° WNW 20:46:02 10° SSW
Cosmos 2315 Rocket 3.9 20:35:12 14° S 20:40:44 85° E 20:47:06 10° N
Okean 2 Rocket 3.9 20:42:54 34° ENE 20:42:54 34° ENE 20:46:12 10° NNE
Cosmos 1346 Rocket 2.6 20:47:49 70° SSW 20:48:13 84° W 20:52:06 10° N
SPOT 1/Viking Rocket 3.8 20:47:50 47° ESE 20:48:47 53° ENE 20:53:51 10° N
MetOp-B 4.2 20:47:46 36° S 20:50:01 78° WSW 20:55:24 10° NNW
Cosmos 2150 Rocket 3.8 20:49:29 37° S 20:51:31 74° ESE 20:56:44 10° NNE
Terra 2.9 20:53:27 30° ENE 20:53:27 30° ENE 20:57:28 10° N
Cosmos 2322 Rocket 3.6 20:51:50 10° N 20:56:22 24° NE 20:57:27 23° ENE
Cosmos 2298 Rocket 3.9 20:53:39 23° SSW 20:57:05 90° W 21:02:27 10° NNE
USA 32 3.9 20:53:29 10° N 20:58:45 84° E 20:59:51 57° SSE
Sich 1 Rocket 3.6 20:57:44 53° SSW 20:58:45 80° W 21:03:15 10° N
Uosat 12 SS-18 rocket 4.3 20:53:29 10° NW 20:58:56 74° WSW 20:59:39 61° S
EO 1 Del DPAF 4.4 20:57:16 10° NNE 20:59:28 32° NE 20:59:28 32° NE
Cosmos 1782 Rocket 4.0 21:00:14 36° SW 21:01:51 60° W 21:06:14 10° N
Resurs 01 Rocket 3.5 21:01:00 14° SW 21:03:44 25° W 21:07:24 10° NW
USA 229 DEB 3.8 21:00:25 10° NW 21:07:42 83° WSW 21:10:12 47° SSE
USA 229 3.8 21:00:31 10° NW 21:07:49 84° SW 21:10:17 47° SSE
Cosmos 1833 Rocket 3.6 21:02:31 10° SW 21:07:58 49° WNW 21:13:27 10° NNE
Abrixas rocket 4.1 21:04:58 10° WNW 21:06:43 29° NW 21:06:43 29° NW
Cosmos 2360 4.2 21:02:19 10° NNW 21:08:01 78° WSW 21:09:14 56° S
Cosmos 1743 3.7 21:10:47 39° NNE 21:10:47 39° NNE 21:13:17 10° N
NOSS 3-1 (A) 4.1 21:03:40 10° NW 21:11:12 70° NE 21:14:04 44° ESE
Cosmos 1048 Rocket 3.8 21:10:20 10° NNW 21:15:28 73° ENE 21:15:34 73° E
Cosmos 1666 3.9 21:15:40 36° W 21:16:12 38° WNW 21:19:48 10° N
Cosmos 2082 Rocket 2.7 21:11:21 10° SW 21:16:53 58° WNW 21:22:31 10° NNE
ERS-1 Rocket 2.8 21:18:50 79° SSW 21:19:08 84° WSW 21:24:11 10° NNW
IGS 5A 3.9 21:22:00 60° NNW 21:22:00 60° NNW 21:25:28 10° NNW
MOS 1 Rocket 3.9 21:16:04 10° NNE 21:20:46 53° ENE 21:20:46 53° ENE
Geosat 3.9 21:22:23 77° SSW 21:22:35 79° WSW 21:27:38 10° NNW
CZ-2C R/B 3.0 21:17:43 10° N 21:22:57 62° WNW 21:25:16 33° SW
Cosmos 1697 Rocket 3.8 21:18:58 10° NW 21:24:08 37° WSW 21:25:43 31° SW
Cosmos 2278 4.5 21:19:26 10° NW 21:24:46 43° WSW 21:26:04 37° SW
Cosmos 2151 Rocket 4.5 21:27:52 43° NNE 21:27:52 43° NNE 21:30:56 10° NNE
Cosmos 1975 Rocket 4.2 21:22:57 10° NNW 21:27:04 37° W 21:27:38 35° WSW
SL-16 R/B 2.7 21:25:07 10° NNW 21:30:35 46° ENE 21:30:37 46° ENE
SPOT 5 3.2 21:35:02 56° NNW 21:35:02 56° NNW 21:38:33 10° NNW
Thor Agena Rocket 3.5 21:31:28 10° NNE 21:36:29 83° N 21:36:29 83° N
Cosmos 1125 Rocket 3.6 21:39:17 72° N 21:39:17 72° N 21:44:02 10° NNE
Cosmos 2327 Rocket 4.3 21:33:46 10° N 21:40:13 83° E 21:40:40 77° SE
Meteor 2-15 4.2 21:40:27 81° SSE 21:40:47 87° E 21:46:57 10° N
CZ-4C R/B 3.1 21:43:11 37° NE 21:43:11 37° NE 21:46:49 10° NE
Cosmos 1269 Rocket 4.4 21:36:16 10° NNW 21:40:54 57° NNE 21:40:54 57° NNE
Cosmos 494 Rocket 4.3 21:37:19 10° NNW 21:41:41 57° NNE 21:41:41 57° NNE
Cosmos 2360 Rocket 3.5 21:38:53 10° N 21:43:40 27° NE 21:43:44 27° NE
Cosmos 1980 Rocket 2.9 21:43:47 10° NW 21:49:04 42° WSW 21:49:20 42° WSW
Cosmos 1867 3.7 21:44:50 10° NW 21:49:44 71° NW 21:49:44 71° NW
NOSS 3-1 (C) 4.5 21:51:42 10° NW 21:59:07 52° WSW 22:00:39 47° SSW
Nadezhda 1 Rocket 3.9 21:59:11 79° W 21:59:18 79° W 22:05:26 10° N
BREEZE M DEB (TANK) 3.8 22:00:42 10° WNW 22:03:57 46° NNE 22:12:19 10° ENE
Cosmos 2154 Rocket 3.9 21:58:57 10° N 22:05:04 79° WNW 22:05:04 79° WNW
FALCON 9 R/B 4.1 22:11:35 10° WSW 22:28:08 44° SSW 22:28:08 44° SSW
Terra 3.6 22:32:20 27° WNW 22:32:20 27° WNW 22:35:17 10° NNW
Lacrosse 4 Rocket 3.9 22:28:56 10° N 22:30:25 18° N 22:30:25 18° N
Cosmos 2322 Rocket 3.1 22:35:18 10° NNW 22:39:15 43° NW 22:39:15 43° NW
Cosmos 2366 rocket 4.4 22:38:26 10° N 22:43:30 57° NNE 22:43:30 57° NNE
Cosmos 2333 Rocket 3.6 22:44:36 10° N 22:48:53 30° NE 22:48:53 30° NE
Mayak 1.3 23:06:55 10° N 23:08:17 19° NNW 23:08:17 19° NNW
SL-16 R/B 4.0 23:09:41 10° NW 23:12:28 23° WNW 23:12:28 23° WNW
Aureole 1 Rocket 4.5 23:10:28 10° NNW 23:16:49 62° NNW 23:16:49 62° NNW
Cosmos 2360 Rocket 3.7 23:22:30 10° NW 23:25:29 30° NW 23:25:29 30° NW
CZ-4C R/B 4.0 23:28:17 22° WNW 23:30:07 26° NNW 23:35:19 10° NNE
Cosmos 2219 Rocket 3.4 23:26:44 10° NNW 23:30:19 38° N 23:30:19 38° N
COSMOS 2428 3.9 23:35:28 10° NNW 23:39:02 39° NNW 23:39:02 39° NNW
COSMOS 2455 3.8 23:43:06 10° NNW 23:46:59 42° NNW 23:46:59 42° NNW
ATLAS 2AS CENTAUR R/B 3.4 23:43:57 10° NNW 23:51:32 52° NE 23:52:24 50° ENE
